sat.trackr.live / text

‹ back to catalog

STARLINK-36071

NORAD 66808 · 2025-278T

PAYLOAD ACTIVE UNKNOWN

§ Identity

Operator
Country
US
Launch date
2025-12-01
Launch site
AFETR
Launch vehicle
Mass (kg)
RCS (m²)

Purposes: comms

External: N2YO · Heavens-Above · Gunter

§ Orbital elements

Epoch: 2026-09-20T22:21:21.835872Z

Period
94.27 min
Inclination
43.0018°
Eccentricity
0.0001664
Mean motion
15.27583724 rev/d
Perigee alt
481.9 km
Apogee alt
484.2 km
Semi-major
6,861.2 km
B*
3.7922e-4
RAAN
91.3229°
Arg perigee
15.7449°
Mean anomaly
344.3454°
Rev number
4,507

§ Raw data

STARLINK-360711 66808U 25278T   26263.93150273  .00010189  00000+0  37922-3 0  99952 66808  43.0018  91.3229 0001664  15.7449 344.3454 15.27583724 45076

JSON: /api/v1/satellites/66808 · /tle

For live sub-satellite position, see the globe view (requires WebGL).

§ Visibility from observer

Set your observer location to see the next 7 days of passes ≥ 10°. The values pass through the URL so the page stays shareable.

No JS? Fill the form by hand. The geolocation button needs JavaScript.